weather.gov     
National Weather Service

Terminal Aerodrome Forecast
NWS Homepage
This page is being discontinued on March 12, 2014.
The same data is available at this site. Please update your bookmarks.
Thank you, and we apologize for the inconvenience.
Please send an email to SR-SRH.Webmaster@noaa.gov with any concerns.


Current Version
Previous Version:    01  02  03  04  05  06  07  08  09  10  11  12  13  14  15  16  17  18  19  20  21  22  23  24  25  26  27  28  29  30  
   31  32  33  34  35  36  
[Printable]
940
FTUS41 KPHI 252300
TAFRDG
TAF
KRDG 252320Z 2600/2624 31004KT P6SM BKN150
     FM260600 36006KT P6SM OVC100
     FM261100 04005KT 3SM -RASN BR OVC040
     FM261300 01010KT 1SM -SN BR OVC008
      TEMPO 2615/2619 1/2SM SN FG OVC003
     FM262300 34010KT 3SM -SN BR OVC025=


U.S. Dept. of Commerce
NOAA National Weather Service
1325 East West Highway
Silver Spring, MD 20910
E-mail: w-nws.webmaster@noaa.gov
Page last modified: May 16, 2007
NATIONAL WEATHER SERVICE: for Safety, for Work, for Fun - FOR LIFE